Overview Statistics Trail Chart Weather Telemetry Raw packets
 

This is the latest recevied weather packets stored in our database for station/object N9BLE. If no packets are shown the sender has not sent any weather packets the latest 10 day(s).

<< 74 75 76 77 78 79 80 >>
Time Temp. Humidity Pressure Rain* Wind** Luminosity Snow
1777511013 8.33° C 72% 1020 hPa 0 mm - 0 W/m² -
1777510710 8.33° C 70% 1019.9 hPa 0 mm - 1 W/m² -
1777510406 8.89° C 70% 1020 hPa 0 mm - 2 W/m² -
1777510102 8.89° C 71% 1019.9 hPa 0 mm - 2 W/m² -
1777509799 8.89° C 71% 1019.9 hPa 0 mm - 4 W/m² -
1777509495 8.89° C 70% 1020 hPa 0 mm - 7 W/m² -
1777509193 8.89° C 71% 1019.8 hPa 0 mm - 8 W/m² -
1777508889 8.89° C 70% 1019.6 hPa 0 mm - 11 W/m² -
1777508586 8.89° C 71% 1019.6 hPa 0 mm - 14 W/m² -
1777508283 8.89° C 71% 1019.5 hPa 0 mm - 12 W/m² -
1777507981 8.89° C 71% 1019.5 hPa 0 mm - 12 W/m² -
1777507677 8.89° C 71% 1019.5 hPa 0 mm - 14 W/m² -
1777507374 8.89° C 70% 1019.5 hPa 0 mm - 16 W/m² -
1777507071 8.89° C 69% 1019.4 hPa 0 mm - 29 W/m² -
1777506769 8.89° C 70% 1019.2 hPa 0 mm - 30 W/m² -
1777506465 9.44° C 68% 1019.3 hPa 0 mm - 25 W/m² -
1777506161 9.44° C 67% 1019.2 hPa 0 mm - 33 W/m² -
1777505857 10° C 67% 1019.2 hPa 0 mm - 41 W/m² -
1777505553 10° C 67% 1019.2 hPa 0 mm - 63 W/m² -
1777505250 10° C 66% 1019.1 hPa 0 mm - 57 W/m² -
1777504947 10° C 65% 1019.1 hPa 0 mm - 61 W/m² -
1777504644 10° C 65% 1019.1 hPa 0 mm - 68 W/m² -
1777504341 10° C 63% 1019.2 hPa 0 mm - 69 W/m² -
1777504041 10.56° C 64% 1019.1 hPa 0 mm - 69 W/m² -
1777503738 10.56° C 63% 1019.1 hPa 0 mm - 93 W/m² -

* Rain latest hour (hover to see other rain measurements)
** Current wind speed in m/s (hover to see current wind gust speed)